| time (UTC) | temp F | wind direction | speed MPH | gust MPH | rain 1hr in | rain 24hr in | rain mn in | humidity % | barometer mb |
| 20260506202611 | 76 | 97 | 3.0 | 6.0 | 0.00 | 0.00 | 0.00 | 34 | 1012.9 |
| 20260506201611 | 79 | 84 | 3.0 | 7.0 | 0.00 | 0.00 | 0.00 | 32 | 1013.1 |
| 20260506200610 | 76 | 81 | 2.0 | 6.0 | 0.00 | 0.00 | 0.00 | 33 | 1013.2 |
| 20260506195610 | 76 | 36 | 3.0 | 9.0 | 0.00 | 0.00 | 0.00 | 32 | 1013.3 |
| 20260506131606 | 47 | 93 | 4.0 | 11.0 | 0.00 | 0.00 | 0.00 | 57 | 1014.1 |
| 20260506130606 | 47 | 106 | 4.0 | 10.0 | 0.00 | 0.00 | 0.00 | 56 | 1014.0 |
| 20260506125606 | 47 | 89 | 8.0 | 10.0 | 0.00 | 0.00 | 0.00 | 56 | 1013.8 |
| 20260506124606 | 48 | 101 | 2.0 | 10.0 | 0.00 | 0.00 | 0.00 | 55 | 1013.7 |
| 20260506123606 | 48 | 121 | 3.0 | 9.0 | 0.00 | 0.00 | 0.00 | 55 | 1013.5 |
| 20260506122606 | 47 | 135 | 6.0 | 12.0 | 0.00 | 0.00 | 0.00 | 56 | 1013.5 |
| 20260506121606 | 47 | 116 | 5.0 | 10.0 | 0.00 | 0.00 | 0.00 | 57 | 1013.3 |
| 20260506120606 | 48 | 114 | 3.0 | 10.0 | 0.00 | 0.00 | 0.00 | 58 | 1013.2 |
| 20260506115606 | 48 | 106 | 7.0 | 10.0 | 0.00 | 0.00 | 0.00 | 57 | 1013.1 |
| 20260506114605 | 49 | 104 | 6.0 | 7.0 | 0.00 | 0.00 | 0.00 | 55 | 1013.1 |
| 20260506113605 | 50 | 102 | 3.0 | 7.0 | 0.00 | 0.00 | 0.00 | 54 | 1013.1 |
| 20260506112606 | 50 | 140 | 3.0 | 8.0 | 0.00 | 0.00 | 0.00 | 53 | 1012.9 |
| 20260506082603 | 58 | 329 | 0.0 | 0.0 | 0.00 | 0.00 | 0.00 | 57 | 1009.3 |
| 20260506081603 | 59 | 329 | 0.0 | 3.0 | 0.00 | 0.00 | 0.00 | 54 | 1009.0 |
| 20260506080604 | 59 | 329 | 2.0 | 3.0 | 0.00 | 0.00 | 0.00 | 54 | 1008.7 |
| 20260506072603 | 60 | 329 | 2.0 | 3.0 | 0.00 | 0.00 | 0.00 | 53 | 1008.2 |
| 20260506071603 | 60 | 329 | 2.0 | 3.0 | 0.00 | 0.00 | 0.00 | 53 | 1008.1 |
| 20260506070623 | 60 | 329 | 1.0 | 3.0 | 0.00 | 0.00 | 0.00 | 52 | 1008.0 |
| 20260506033601 | 70 | 298 | 2.0 | 8.0 | 0.00 | 0.00 | 0.00 | 38 | 1004.3 |
| 20260506032601 | 70 | 307 | 3.0 | 5.0 | 0.00 | 0.00 | 0.00 | 38 | 1004.0 |
| 20260506031621 | 70 | 299 | 3.0 | 5.0 | 0.00 | 0.00 | 0.00 | 38 | 1003.8 |
| 20260506030601 | 71 | 292 | 3.0 | 5.0 | 0.00 | 0.00 | 0.00 | 37 | 1003.6 |
| 20260506000559 | 80 | 310 | 3.0 | 10.0 | 0.00 | 0.00 | 0.00 | 31 | 1002.1 |
| 20260505235559 | 81 | 352 | 9.0 | 13.0 | 0.00 | 0.00 | 0.00 | 32 | 1002.0 |
| 20260505234559 | 81 | 356 | 5.0 | 18.0 | 0.00 | 0.00 | 0.00 | 30 | 1002.1 |
| 20260505233559 | 81 | 329 | 9.0 | 12.0 | 0.00 | 0.00 | 0.00 | 31 | 1002.2 |
| 20260505232559 | 81 | 324 | 3.0 | 14.0 | 0.00 | 0.00 | 0.00 | 32 | 1002.2 |
| 20260505231559 | 81 | 329 | 5.0 | 15.0 | 0.00 | 0.00 | 0.00 | 30 | 1002.3 |
| 20260505230559 | 81 | 305 | 1.0 | 11.0 | 0.00 | 0.00 | 0.00 | 32 | 1002.2 |
| 20260505225559 | 80 | 310 | 3.0 | 17.0 | 0.00 | 0.00 | 0.00 | 32 | 1002.3 |
| 20260505224559 | 81 | 309 | 3.0 | 14.0 | 0.00 | 0.00 | 0.00 | 31 | 1002.4 |
| 20260505223558 | 81 | 283 | 10.0 | 14.0 | 0.00 | 0.00 | 0.00 | 31 | 1002.4 |
| 20260505222558 | 81 | 311 | 7.0 | 19.0 | 0.00 | 0.00 | 0.00 | 30 | 1002.6 |
| 20260505221558 | 80 | 318 | 5.0 | 11.0 | 0.00 | 0.00 | 0.00 | 34 | 1002.6 |
| 20260505220618 | 80 | 9 | 3.0 | 11.0 | 0.00 | 0.00 | 0.00 | 32 | 1002.8 |
| 20260505215558 | 80 | 320 | 5.0 | 11.0 | 0.00 | 0.00 | 0.00 | 32 | 1003.1 |
| 20260505214558 | 79 | 12 | 8.0 | 11.0 | 0.00 | 0.00 | 0.00 | 34 | 1003.2 |
| 20260505213558 | 80 | 313 | 3.0 | 10.0 | 0.00 | 0.00 | 0.00 | 34 | 1003.3 |